Year,Month,Day,Hour,Minute,Value (Times are PST for temperature in C)
2011,07,01,00,00,12.10
2011,07,01,00,01,12.10
2011,07,01,00,02,12.10
2011,07,01,00,03,12.10
2011,07,01,00,04,12.10
2011,07,01,00,05,12.10
2011,07,01,00,06,12.10
2011,07,01,00,07,12.10
2011,07,01,00,08,12.10
2011,07,01,00,09,12.10
2011,07,01,00,10,12.10
2011,07,01,00,11,12.10
2011,07,01,00,12,12.10
2011,07,01,00,13,12.10
2011,07,01,00,14,12.10
2011,07,01,00,15,12.10
2011,07,01,00,16,12.10
2011,07,01,00,17,12.10
2011,07,01,00,18,12.10
2011,07,01,00,19,12.10
2011,07,01,00,20,12.10
2011,07,01,00,21,12.10
2011,07,01,00,22,12.10
2011,07,01,00,23,12.10
2011,07,01,00,24,12.10
2011,07,01,00,25,12.10
2011,07,01,00,26,12.10
2011,07,01,00,27,12.00
2011,07,01,00,28,12.00
2011,07,01,00,29,12.00
2011,07,01,00,30,12.00
2011,07,01,00,31,11.90
2011,07,01,00,32,11.90
2011,07,01,00,33,11.90
2011,07,01,00,34,11.90
2011,07,01,00,35,11.90
2011,07,01,00,36,11.90
2011,07,01,00,37,11.90
2011,07,01,00,38,11.80
2011,07,01,00,39,11.80
2011,07,01,00,40,11.80
2011,07,01,00,41,11.80
2011,07,01,00,42,11.80
2011,07,01,00,43,11.70
2011,07,01,00,44,11.70
2011,07,01,00,45,11.70
2011,07,01,00,46,11.70
2011,07,01,00,47,11.60
2011,07,01,00,48,11.60
2011,07,01,00,49,11.60
2011,07,01,00,50,11.60
2011,07,01,00,51,11.60
2011,07,01,00,52,11.60
2011,07,01,00,53,11.50
2011,07,01,00,54,11.50
2011,07,01,00,55,11.60
2011,07,01,00,56,11.60
2011,07,01,00,57,11.50
2011,07,01,00,58,11.50
2011,07,01,00,59,11.60
2011,07,01,01,00,11.60
2011,07,01,01,01,11.60
2011,07,01,01,02,11.60
2011,07,01,01,03,11.60
2011,07,01,01,04,11.70
2011,07,01,01,05,11.70
2011,07,01,01,06,11.70
2011,07,01,01,07,11.70
2011,07,01,01,08,11.80
2011,07,01,01,09,11.80
2011,07,01,01,10,11.80
2011,07,01,01,11,11.80
2011,07,01,01,12,11.80
2011,07,01,01,13,11.80
2011,07,01,01,14,11.80
2011,07,01,01,15,11.90
2011,07,01,01,16,11.90
2011,07,01,01,17,11.90
2011,07,01,01,18,11.90
2011,07,01,01,19,11.90
2011,07,01,01,20,11.90
2011,07,01,01,21,11.90
2011,07,01,01,22,11.90
2011,07,01,01,23,12.00
2011,07,01,01,24,12.00
2011,07,01,01,25,12.00
2011,07,01,01,26,12.10
2011,07,01,01,27,12.10
2011,07,01,01,28,12.10
2011,07,01,01,29,12.10
2011,07,01,01,30,12.10
2011,07,01,01,31,12.10
2011,07,01,01,32,12.10
2011,07,01,01,33,12.10
2011,07,01,01,34,12.10
2011,07,01,01,35,12.10
2011,07,01,01,36,12.10
2011,07,01,01,37,12.10
2011,07,01,01,38,12.10
2011,07,01,01,39,12.00
2011,07,01,01,40,12.00
2011,07,01,01,41,12.00
2011,07,01,01,42,12.00
2011,07,01,01,43,12.00
2011,07,01,01,44,12.00
2011,07,01,01,45,12.00
2011,07,01,01,46,12.00
2011,07,01,01,47,11.90
2011,07,01,01,48,11.90
2011,07,01,01,49,11.90
2011,07,01,01,50,11.90
2011,07,01,01,51,11.90
2011,07,01,01,52,11.90
2011,07,01,01,53,11.90
2011,07,01,01,54,11.90
2011,07,01,01,55,11.90
2011,07,01,01,56,11.90
2011,07,01,01,57,11.80
2011,07,01,01,58,11.80
2011,07,01,01,59,11.80
2011,07,01,02,00,11.80
2011,07,01,02,01,11.80
2011,07,01,02,02,11.80
2011,07,01,02,03,11.70
2011,07,01,02,04,11.70
2011,07,01,02,05,11.70
2011,07,01,02,06,11.70
2011,07,01,02,07,11.70
2011,07,01,02,08,11.70
2011,07,01,02,09,11.70
2011,07,01,02,10,11.70
2011,07,01,02,11,11.60
2011,07,01,02,12,11.60
2011,07,01,02,13,11.60
2011,07,01,02,14,11.60
2011,07,01,02,15,11.60
2011,07,01,02,16,11.60
2011,07,01,02,17,11.50
2011,07,01,02,18,11.50
2011,07,01,02,19,11.50
2011,07,01,02,20,11.40
2011,07,01,02,21,11.40
2011,07,01,02,22,11.40
2011,07,01,02,23,11.40
2011,07,01,02,24,11.30
2011,07,01,02,25,11.30
2011,07,01,02,26,11.30
2011,07,01,02,27,11.30
2011,07,01,02,28,11.30
2011,07,01,02,29,11.30
2011,07,01,02,30,11.20
2011,07,01,02,31,11.20
2011,07,01,02,32,11.20
2011,07,01,02,33,11.20
2011,07,01,02,34,11.20
2011,07,01,02,35,11.20
2011,07,01,02,36,11.10
2011,07,01,02,37,11.10
2011,07,01,02,38,11.10
2011,07,01,02,39,11.10
2011,07,01,02,40,11.10
2011,07,01,02,41,11.00
2011,07,01,02,42,11.00
2011,07,01,02,43,10.90
2011,07,01,02,44,10.90
2011,07,01,02,45,10.90
2011,07,01,02,46,10.90
2011,07,01,02,47,10.80
2011,07,01,02,48,10.80
2011,07,01,02,49,10.80
2011,07,01,02,50,10.80
2011,07,01,02,51,10.80
2011,07,01,02,52,10.80
2011,07,01,02,53,10.70
2011,07,01,02,54,10.70
2011,07,01,02,55,10.70
2011,07,01,02,56,10.70
2011,07,01,02,57,10.70
2011,07,01,02,58,10.70
2011,07,01,02,59,10.70
2011,07,01,03,00,10.70
2011,07,01,03,01,10.60
2011,07,01,03,02,10.60
2011,07,01,03,03,10.60
2011,07,01,03,04,10.60
2011,07,01,03,05,10.60
2011,07,01,03,06,10.60
2011,07,01,03,07,10.60
2011,07,01,03,08,10.60
2011,07,01,03,09,10.60
2011,07,01,03,10,10.50
2011,07,01,03,11,10.50
2011,07,01,03,12,10.50
2011,07,01,03,13,10.50
2011,07,01,03,14,10.40
2011,07,01,03,15,10.40
2011,07,01,03,16,10.40
2011,07,01,03,17,10.40
2011,07,01,03,18,10.40
2011,07,01,03,19,10.40
2011,07,01,03,20,10.40
2011,07,01,03,21,10.30
2011,07,01,03,22,10.30
2011,07,01,03,23,10.30
2011,07,01,03,24,10.30
2011,07,01,03,25,10.30
2011,07,01,03,26,10.30
2011,07,01,03,27,10.40
2011,07,01,03,28,10.40
2011,07,01,03,29,10.40
2011,07,01,03,30,10.40
2011,07,01,03,31,10.40
2011,07,01,03,32,10.40
2011,07,01,03,33,10.40
2011,07,01,03,34,10.40
2011,07,01,03,35,10.40
2011,07,01,03,36,10.40
2011,07,01,03,37,10.40
2011,07,01,03,38,10.40
2011,07,01,03,39,10.40
2011,07,01,03,40,10.40
2011,07,01,03,41,10.40
2011,07,01,03,42,10.40
2011,07,01,03,43,10.40
2011,07,01,03,44,10.40
2011,07,01,03,45,10.40
2011,07,01,03,46,10.40
2011,07,01,03,47,10.40
2011,07,01,03,48,10.40
2011,07,01,03,49,10.40
2011,07,01,03,50,10.50
2011,07,01,03,51,10.50
2011,07,01,03,52,10.50
2011,07,01,03,53,10.50
2011,07,01,03,54,10.60
2011,07,01,03,55,10.60
2011,07,01,03,56,10.60
2011,07,01,03,57,10.70
2011,07,01,03,58,10.70
2011,07,01,03,59,10.70
2011,07,01,04,00,10.70
2011,07,01,04,01,10.70
2011,07,01,04,02,10.70
2011,07,01,04,03,10.80
2011,07,01,04,04,10.80
2011,07,01,04,05,10.80
2011,07,01,04,06,10.80
2011,07,01,04,07,10.80
2011,07,01,04,08,10.80
2011,07,01,04,09,10.80
2011,07,01,04,10,10.80
2011,07,01,04,11,10.80
2011,07,01,04,12,10.80
2011,07,01,04,13,10.80
2011,07,01,04,14,10.80
2011,07,01,04,15,10.80
2011,07,01,04,16,10.90
2011,07,01,04,17,10.90
2011,07,01,04,18,10.90
2011,07,01,04,19,10.90
2011,07,01,04,20,10.90
2011,07,01,04,21,10.90
2011,07,01,04,22,10.90
2011,07,01,04,23,10.90
2011,07,01,04,24,10.90
2011,07,01,04,25,10.90
2011,07,01,04,26,10.90
2011,07,01,04,27,10.90
2011,07,01,04,28,11.00
2011,07,01,04,29,11.00
2011,07,01,04,30,11.00
2011,07,01,04,31,11.10
2011,07,01,04,32,11.10
2011,07,01,04,33,11.10
2011,07,01,04,34,11.20
2011,07,01,04,35,11.20
2011,07,01,04,36,11.20
2011,07,01,04,37,11.30
2011,07,01,04,38,11.30
2011,07,01,04,39,11.30
2011,07,01,04,40,11.40
2011,07,01,04,41,11.40
2011,07,01,04,42,11.40
2011,07,01,04,43,11.40
2011,07,01,04,44,11.40
2011,07,01,04,45,11.40
2011,07,01,04,46,11.40
2011,07,01,04,47,11.40
2011,07,01,04,48,11.40
2011,07,01,04,49,11.50
2011,07,01,04,50,11.50
2011,07,01,04,51,11.50
2011,07,01,04,52,11.50
2011,07,01,04,53,11.50
2011,07,01,04,54,11.50
2011,07,01,04,55,11.50
2011,07,01,04,56,11.50
2011,07,01,04,57,11.60
2011,07,01,04,58,11.60
2011,07,01,04,59,11.60
2011,07,01,05,00,11.60
2011,07,01,05,01,11.60
2011,07,01,05,02,11.60
2011,07,01,05,03,11.60
2011,07,01,05,04,11.60
2011,07,01,05,05,11.60
2011,07,01,05,06,11.60
2011,07,01,05,07,11.60
2011,07,01,05,08,11.60
2011,07,01,05,09,11.70
2011,07,01,05,10,11.70
2011,07,01,05,11,11.70
2011,07,01,05,12,11.70
2011,07,01,05,13,11.70
2011,07,01,05,14,11.70
2011,07,01,05,15,11.70
2011,07,01,05,16,11.70
2011,07,01,05,17,11.70
2011,07,01,05,18,11.70
2011,07,01,05,19,11.70
2011,07,01,05,20,11.70
2011,07,01,05,21,11.70
2011,07,01,05,22,11.70
2011,07,01,05,23,11.70
2011,07,01,05,24,11.70
2011,07,01,05,25,11.70
2011,07,01,05,26,11.70
2011,07,01,05,27,11.70
2011,07,01,05,28,11.70
2011,07,01,05,29,11.70
2011,07,01,05,30,11.60
2011,07,01,05,31,11.60
2011,07,01,05,32,11.60
2011,07,01,05,33,11.60
2011,07,01,05,34,11.60
2011,07,01,05,35,11.60
2011,07,01,05,36,11.60
2011,07,01,05,37,11.60
2011,07,01,05,38,11.60
2011,07,01,05,39,11.60
2011,07,01,05,40,11.60
2011,07,01,05,41,11.60
2011,07,01,05,42,11.60
2011,07,01,05,43,11.60
2011,07,01,05,44,11.60
2011,07,01,05,45,11.60
2011,07,01,05,46,11.60
2011,07,01,05,47,11.60
2011,07,01,05,48,11.60
2011,07,01,05,49,11.60
2011,07,01,05,50,11.60
2011,07,01,05,51,11.60
2011,07,01,05,52,11.60
2011,07,01,05,53,11.60
2011,07,01,05,54,11.60
2011,07,01,05,55,11.60
2011,07,01,05,56,11.60
2011,07,01,05,57,11.60
2011,07,01,05,58,11.70
2011,07,01,05,59,11.70
2011,07,01,06,00,11.70
2011,07,01,06,01,11.70
2011,07,01,06,02,11.70
2011,07,01,06,03,11.70
2011,07,01,06,04,11.70
2011,07,01,06,05,11.70
2011,07,01,06,06,11.70
2011,07,01,06,07,11.70
2011,07,01,06,08,11.70
2011,07,01,06,09,11.70
2011,07,01,06,10,11.70
2011,07,01,06,11,11.70
2011,07,01,06,12,11.70
2011,07,01,06,13,11.70
2011,07,01,06,14,11.70
2011,07,01,06,15,11.70
2011,07,01,06,16,11.70
2011,07,01,06,17,11.70
2011,07,01,06,18,11.70
2011,07,01,06,19,11.70
2011,07,01,06,20,11.70
2011,07,01,06,21,11.70
2011,07,01,06,22,11.80
2011,07,01,06,23,11.80
2011,07,01,06,24,11.80
2011,07,01,06,25,11.80
2011,07,01,06,26,11.80
2011,07,01,06,27,11.80
2011,07,01,06,28,11.90
2011,07,01,06,29,11.90
2011,07,01,06,30,11.90
2011,07,01,06,31,11.90
2011,07,01,06,32,11.90
2011,07,01,06,33,12.00
2011,07,01,06,34,12.00
2011,07,01,06,35,12.00
2011,07,01,06,36,12.10
2011,07,01,06,37,12.10
2011,07,01,06,38,12.10
2011,07,01,06,39,12.10
2011,07,01,06,40,12.10
2011,07,01,06,41,12.10
2011,07,01,06,42,12.10
2011,07,01,06,43,12.10
2011,07,01,06,44,12.10
2011,07,01,06,45,12.10
2011,07,01,06,46,12.10
2011,07,01,06,47,12.20
2011,07,01,06,48,12.20
2011,07,01,06,49,12.20
2011,07,01,06,50,12.20
2011,07,01,06,51,12.20
2011,07,01,06,52,12.20
2011,07,01,06,53,12.20
2011,07,01,06,54,12.20
2011,07,01,06,55,12.20
2011,07,01,06,56,12.30
2011,07,01,06,57,12.30
2011,07,01,06,58,12.30
2011,07,01,06,59,12.30
2011,07,01,07,00,12.30
2011,07,01,07,01,12.30
2011,07,01,07,02,12.30
2011,07,01,07,03,12.30
2011,07,01,07,04,12.30
2011,07,01,07,05,12.40
2011,07,01,07,06,12.40
2011,07,01,07,07,12.40
2011,07,01,07,08,12.40
2011,07,01,07,09,12.40
2011,07,01,07,10,12.50
2011,07,01,07,11,12.50
2011,07,01,07,12,12.50
2011,07,01,07,13,12.60
2011,07,01,07,14,12.60
2011,07,01,07,15,12.60
2011,07,01,07,16,12.60
2011,07,01,07,17,12.60
2011,07,01,07,18,12.60
2011,07,01,07,19,12.70
2011,07,01,07,20,12.70
2011,07,01,07,21,12.70
2011,07,01,07,22,12.70
2011,07,01,07,23,12.70
2011,07,01,07,24,12.70
2011,07,01,07,25,12.70
2011,07,01,07,26,12.70
2011,07,01,07,27,12.80
2011,07,01,07,28,12.80
2011,07,01,07,29,12.80
2011,07,01,07,30,12.80
2011,07,01,07,31,12.80
2011,07,01,07,32,12.80
2011,07,01,07,33,12.90
2011,07,01,07,34,12.90
2011,07,01,07,35,12.90
2011,07,01,07,36,12.90
2011,07,01,07,37,12.90
2011,07,01,07,38,12.90
2011,07,01,07,39,12.90
2011,07,01,07,40,12.90
2011,07,01,07,41,12.90
2011,07,01,07,42,12.90
2011,07,01,07,43,12.90
2011,07,01,07,44,12.90
2011,07,01,07,45,13.00
2011,07,01,07,46,13.00
2011,07,01,07,47,13.00
2011,07,01,07,48,13.00
2011,07,01,07,49,13.00
2011,07,01,07,50,13.00
2011,07,01,07,51,13.00
2011,07,01,07,52,13.00
2011,07,01,07,53,13.00
2011,07,01,07,54,13.00
2011,07,01,07,55,13.00
2011,07,01,07,56,13.00
2011,07,01,07,57,13.00
2011,07,01,07,58,13.10
2011,07,01,07,59,13.10
2011,07,01,08,00,13.10
2011,07,01,08,01,13.10
2011,07,01,08,02,13.10
2011,07,01,08,03,13.10
2011,07,01,08,04,13.10
2011,07,01,08,05,13.10
2011,07,01,08,06,13.10
2011,07,01,08,07,13.20
2011,07,01,08,08,13.20
2011,07,01,08,09,13.20
2011,07,01,08,10,13.20
2011,07,01,08,11,13.20
2011,07,01,08,12,13.20
2011,07,01,08,13,13.20
2011,07,01,08,14,13.20
2011,07,01,08,15,13.20
2011,07,01,08,16,13.30
2011,07,01,08,17,13.30
2011,07,01,08,18,13.30
2011,07,01,08,19,13.30
2011,07,01,08,20,13.30
2011,07,01,08,21,13.30
2011,07,01,08,22,13.30
2011,07,01,08,23,13.30
2011,07,01,08,24,13.30
2011,07,01,08,25,13.30
2011,07,01,08,26,13.30
2011,07,01,08,27,13.30
2011,07,01,08,28,13.30
2011,07,01,08,29,13.40
2011,07,01,08,30,13.40
2011,07,01,08,31,13.40
2011,07,01,08,32,13.40
2011,07,01,08,33,13.40
2011,07,01,08,34,13.50
2011,07,01,08,35,13.50
2011,07,01,08,36,13.50
2011,07,01,08,37,13.50
2011,07,01,08,38,13.50
2011,07,01,08,39,13.60
2011,07,01,08,40,13.60
2011,07,01,08,41,13.60
2011,07,01,08,42,13.60
2011,07,01,08,43,13.70
2011,07,01,08,44,13.70
2011,07,01,08,45,13.70
2011,07,01,08,46,13.70
2011,07,01,08,47,13.80
2011,07,01,08,48,13.80
2011,07,01,08,49,13.80
2011,07,01,08,50,13.80
2011,07,01,08,51,13.80
2011,07,01,08,52,13.80
2011,07,01,08,53,13.90
2011,07,01,08,54,13.90
2011,07,01,08,55,13.90
2011,07,01,08,56,13.90
2011,07,01,08,57,13.90
2011,07,01,08,58,13.90
2011,07,01,08,59,14.00
2011,07,01,09,00,14.00
2011,07,01,09,01,14.00
2011,07,01,09,02,14.00
2011,07,01,09,03,14.10
2011,07,01,09,04,14.10
2011,07,01,09,05,14.00
2011,07,01,09,06,14.00
2011,07,01,09,07,14.00
2011,07,01,09,08,14.10
2011,07,01,09,09,14.10
2011,07,01,09,10,14.10
2011,07,01,09,11,14.10
2011,07,01,09,12,14.10
2011,07,01,09,13,14.10
2011,07,01,09,14,14.10
2011,07,01,09,15,14.10
2011,07,01,09,16,14.10
2011,07,01,09,17,14.10
2011,07,01,09,18,14.20
2011,07,01,09,19,14.20
2011,07,01,09,20,14.20
2011,07,01,09,21,14.20
2011,07,01,09,22,14.20
2011,07,01,09,23,14.20
2011,07,01,09,24,14.20
2011,07,01,09,25,14.20
2011,07,01,09,26,14.20
2011,07,01,09,27,14.20
2011,07,01,09,28,14.20
2011,07,01,09,29,14.30
2011,07,01,09,30,14.30
2011,07,01,09,31,14.40
2011,07,01,09,32,14.50
2011,07,01,09,33,14.50
2011,07,01,09,34,14.60
2011,07,01,09,35,14.70
2011,07,01,09,36,14.70
2011,07,01,09,37,14.70
2011,07,01,09,38,14.80
2011,07,01,09,39,14.80
2011,07,01,09,40,14.80
2011,07,01,09,41,14.90
2011,07,01,09,42,15.00
2011,07,01,09,43,15.00
2011,07,01,09,44,15.00
2011,07,01,09,45,15.00
2011,07,01,09,46,15.10
2011,07,01,09,47,15.30
2011,07,01,09,48,15.40
2011,07,01,09,49,15.40
2011,07,01,09,50,15.60
2011,07,01,09,51,15.60
2011,07,01,09,52,15.70
2011,07,01,09,53,15.70
2011,07,01,09,54,15.80
2011,07,01,09,55,15.80
2011,07,01,09,56,15.90
2011,07,01,09,57,15.80
2011,07,01,09,58,15.80
2011,07,01,09,59,15.90
2011,07,01,10,00,16.00
2011,07,01,10,01,16.10
2011,07,01,10,02,16.10
2011,07,01,10,03,16.20
2011,07,01,10,04,16.20
2011,07,01,10,05,16.30
2011,07,01,10,06,16.40
2011,07,01,10,07,16.50
2011,07,01,10,08,16.60
2011,07,01,10,09,16.60
2011,07,01,10,10,16.60
2011,07,01,10,11,16.70
2011,07,01,10,12,16.70
2011,07,01,10,13,16.70
2011,07,01,10,14,16.70
2011,07,01,10,15,16.80
2011,07,01,10,16,16.80
2011,07,01,10,17,16.90
2011,07,01,10,18,16.80
2011,07,01,10,19,16.80
2011,07,01,10,20,16.70
2011,07,01,10,21,16.80
2011,07,01,10,22,16.80
2011,07,01,10,23,16.80
2011,07,01,10,24,16.80
2011,07,01,10,25,16.80
2011,07,01,10,26,16.70
2011,07,01,10,27,16.70
2011,07,01,10,28,16.70
2011,07,01,10,29,16.60
2011,07,01,10,30,16.50
2011,07,01,10,31,16.60
2011,07,01,10,32,16.60
2011,07,01,10,33,16.70
2011,07,01,10,34,16.80
2011,07,01,10,35,16.80
2011,07,01,10,36,16.80
2011,07,01,10,37,16.80
2011,07,01,10,38,16.80
2011,07,01,10,39,16.80
2011,07,01,10,40,16.80
2011,07,01,10,41,16.80
2011,07,01,10,42,16.80
2011,07,01,10,43,16.90
2011,07,01,10,44,17.00
2011,07,01,10,45,17.10
2011,07,01,10,46,17.20
2011,07,01,10,47,17.20
2011,07,01,10,48,17.10
2011,07,01,10,49,17.10
2011,07,01,10,50,17.10
2011,07,01,10,51,17.10
2011,07,01,10,52,17.00
2011,07,01,10,53,16.90
2011,07,01,10,54,16.80
2011,07,01,10,55,16.70
2011,07,01,10,56,16.60
2011,07,01,10,57,16.40
2011,07,01,10,58,16.30
2011,07,01,10,59,16.10
2011,07,01,11,00,16.10
2011,07,01,11,01,16.00
2011,07,01,11,02,15.90
2011,07,01,11,03,15.80
2011,07,01,11,04,15.70
2011,07,01,11,05,15.60
2011,07,01,11,06,15.60
2011,07,01,11,07,15.60
2011,07,01,11,08,15.60
2011,07,01,11,09,15.70
2011,07,01,11,10,15.80
2011,07,01,11,11,15.70
2011,07,01,11,12,15.70
2011,07,01,11,13,15.60
2011,07,01,11,14,15.60
2011,07,01,11,15,15.50
2011,07,01,11,16,15.50
2011,07,01,11,17,15.60
2011,07,01,11,18,15.60
2011,07,01,11,19,15.60
2011,07,01,11,20,15.50
2011,07,01,11,21,15.50
2011,07,01,11,22,15.50
2011,07,01,11,23,15.60
2011,07,01,11,24,15.50
2011,07,01,11,25,15.50
2011,07,01,11,26,15.40
2011,07,01,11,27,15.40
2011,07,01,11,28,15.40
2011,07,01,11,29,15.50
2011,07,01,11,30,15.40
2011,07,01,11,31,15.40
2011,07,01,11,32,15.40
2011,07,01,11,33,15.40
2011,07,01,11,34,15.50
2011,07,01,11,35,15.60
2011,07,01,11,36,15.60
2011,07,01,11,37,15.70
2011,07,01,11,38,15.70
2011,07,01,11,39,15.80
2011,07,01,11,40,15.80
2011,07,01,11,41,15.80
2011,07,01,11,42,15.90
2011,07,01,11,43,15.90
2011,07,01,11,44,15.90
2011,07,01,11,45,16.00
2011,07,01,11,46,16.00
2011,07,01,11,47,16.00
2011,07,01,11,48,16.00
2011,07,01,11,49,15.90
2011,07,01,11,50,15.90
2011,07,01,11,51,15.80
2011,07,01,11,52,15.70
2011,07,01,11,53,15.70
2011,07,01,11,54,15.70
2011,07,01,11,55,15.60
2011,07,01,11,56,15.60
2011,07,01,11,57,15.60
2011,07,01,11,58,15.60
2011,07,01,11,59,15.50
2011,07,01,12,00,15.40
2011,07,01,12,01,15.30
2011,07,01,12,02,15.20
2011,07,01,12,03,15.10
2011,07,01,12,04,15.00
2011,07,01,12,05,15.00
2011,07,01,12,06,15.00
2011,07,01,12,07,15.00
2011,07,01,12,08,15.00
2011,07,01,12,09,15.00
2011,07,01,12,10,15.00
2011,07,01,12,11,15.00
2011,07,01,12,12,15.10
2011,07,01,12,13,15.20
2011,07,01,12,14,15.30
2011,07,01,12,15,15.30
2011,07,01,12,16,15.20
2011,07,01,12,17,15.00
2011,07,01,12,18,15.00
2011,07,01,12,19,15.00
2011,07,01,12,20,15.00
2011,07,01,12,21,15.10
2011,07,01,12,22,15.20
2011,07,01,12,23,15.30
2011,07,01,12,24,15.30
2011,07,01,12,25,15.40
2011,07,01,12,26,15.50
2011,07,01,12,27,15.60
2011,07,01,12,28,15.60
2011,07,01,12,29,15.60
2011,07,01,12,30,15.60
2011,07,01,12,31,15.60
2011,07,01,12,32,15.60
2011,07,01,12,33,15.60
2011,07,01,12,34,15.60
2011,07,01,12,35,15.60
2011,07,01,12,36,15.60
2011,07,01,12,37,15.50
2011,07,01,12,38,15.50
2011,07,01,12,39,15.40
2011,07,01,12,40,15.40
2011,07,01,12,41,15.40
2011,07,01,12,42,15.40
2011,07,01,12,43,15.40
2011,07,01,12,44,15.50
2011,07,01,12,45,15.40
2011,07,01,12,46,15.50
2011,07,01,12,47,15.50
2011,07,01,12,48,15.50
2011,07,01,12,49,15.50
2011,07,01,12,50,15.60
2011,07,01,12,51,15.70
2011,07,01,12,52,15.70
2011,07,01,12,53,15.80
2011,07,01,12,54,15.80
2011,07,01,12,55,15.80
2011,07,01,12,56,15.80
2011,07,01,12,57,15.80
2011,07,01,12,58,15.80
2011,07,01,12,59,15.80
2011,07,01,13,00,15.80
2011,07,01,13,01,15.80
2011,07,01,13,02,15.80
2011,07,01,13,03,15.70
2011,07,01,13,04,15.70
2011,07,01,13,05,15.70
2011,07,01,13,06,15.70
2011,07,01,13,07,15.70
2011,07,01,13,08,15.70
2011,07,01,13,09,15.70
2011,07,01,13,10,15.70
2011,07,01,13,11,15.70
2011,07,01,13,12,15.70
2011,07,01,13,13,15.70
2011,07,01,13,14,15.60
2011,07,01,13,15,15.60
2011,07,01,13,16,15.60
2011,07,01,13,17,15.60
2011,07,01,13,18,15.60
2011,07,01,13,19,15.70
2011,07,01,13,20,15.80
2011,07,01,13,21,15.90
2011,07,01,13,22,16.00
2011,07,01,13,23,16.10
2011,07,01,13,24,16.20
2011,07,01,13,25,16.20
2011,07,01,13,26,16.20
2011,07,01,13,27,16.30
2011,07,01,13,28,16.30
2011,07,01,13,29,16.40
2011,07,01,13,30,16.40
2011,07,01,13,31,16.40
2011,07,01,13,32,16.40
2011,07,01,13,33,16.50
2011,07,01,13,34,16.60
2011,07,01,13,35,16.80
2011,07,01,13,36,16.90
2011,07,01,13,37,17.10
2011,07,01,13,38,17.20
2011,07,01,13,39,17.30
2011,07,01,13,40,17.40
2011,07,01,13,41,17.40
2011,07,01,13,42,17.40
2011,07,01,13,43,17.40
2011,07,01,13,44,17.40
2011,07,01,13,45,17.30
2011,07,01,13,46,17.10
2011,07,01,13,47,16.90
2011,07,01,13,48,16.80
2011,07,01,13,49,16.90
2011,07,01,13,50,16.90
2011,07,01,13,51,16.80
2011,07,01,13,52,16.80
2011,07,01,13,53,16.80
2011,07,01,13,54,16.80
2011,07,01,13,55,16.90
2011,07,01,13,56,16.90
2011,07,01,13,57,16.80
2011,07,01,13,58,16.90
2011,07,01,13,59,16.90
2011,07,01,14,00,17.00
2011,07,01,14,01,17.10
2011,07,01,14,02,17.20
2011,07,01,14,03,17.30
2011,07,01,14,04,17.40
2011,07,01,14,05,17.50
2011,07,01,14,06,17.60
2011,07,01,14,07,17.70
2011,07,01,14,08,17.90
2011,07,01,14,09,17.90
2011,07,01,14,10,18.00
2011,07,01,14,11,18.00
2011,07,01,14,12,18.10
2011,07,01,14,13,18.20
2011,07,01,14,14,18.40
2011,07,01,14,15,18.40
2011,07,01,14,16,18.50
2011,07,01,14,17,18.30
2011,07,01,14,18,18.20
2011,07,01,14,19,18.10
2011,07,01,14,20,18.20
2011,07,01,14,21,18.10
2011,07,01,14,22,18.10
2011,07,01,14,23,17.90
2011,07,01,14,24,17.80
2011,07,01,14,25,17.60
2011,07,01,14,26,17.50
2011,07,01,14,27,17.50
2011,07,01,14,28,17.60
2011,07,01,14,29,17.60
2011,07,01,14,30,17.60
2011,07,01,14,31,17.60
2011,07,01,14,32,17.50
2011,07,01,14,33,17.50
2011,07,01,14,34,17.60
2011,07,01,14,35,17.50
2011,07,01,14,36,17.50
2011,07,01,14,37,17.40
2011,07,01,14,38,17.50
2011,07,01,14,39,17.40
2011,07,01,14,40,17.30
2011,07,01,14,41,17.20
2011,07,01,14,42,17.10
2011,07,01,14,43,17.10
2011,07,01,14,44,17.00
2011,07,01,14,45,17.00
2011,07,01,14,46,17.00
2011,07,01,14,47,17.00
2011,07,01,14,48,16.90
2011,07,01,14,49,16.90
2011,07,01,14,50,16.80
2011,07,01,14,51,16.80
2011,07,01,14,52,16.90
2011,07,01,14,53,16.90
2011,07,01,14,54,16.90
2011,07,01,14,55,17.00
2011,07,01,14,56,17.00
2011,07,01,14,57,17.00
2011,07,01,14,58,17.00
2011,07,01,14,59,17.00
2011,07,01,15,00,17.00
2011,07,01,15,01,17.10
2011,07,01,15,02,17.20
2011,07,01,15,03,17.30
2011,07,01,15,04,17.40
2011,07,01,15,05,17.40
2011,07,01,15,06,17.40
2011,07,01,15,07,17.50
2011,07,01,15,08,17.60
2011,07,01,15,09,17.70
2011,07,01,15,10,17.80
2011,07,01,15,11,17.90
2011,07,01,15,12,17.90
2011,07,01,15,13,17.90
2011,07,01,15,14,17.90
2011,07,01,15,15,18.00
2011,07,01,15,16,17.90
2011,07,01,15,17,17.90
2011,07,01,15,18,17.90
2011,07,01,15,19,17.90
2011,07,01,15,20,17.90
2011,07,01,15,21,17.70
2011,07,01,15,22,17.50
2011,07,01,15,23,17.30
2011,07,01,15,24,17.20
2011,07,01,15,25,17.30
2011,07,01,15,26,17.40
2011,07,01,15,27,17.50
2011,07,01,15,28,17.50
2011,07,01,15,29,17.60
2011,07,01,15,30,17.60
2011,07,01,15,31,17.40
2011,07,01,15,32,17.50
2011,07,01,15,33,17.50
2011,07,01,15,34,17.60
2011,07,01,15,35,17.60
2011,07,01,15,36,17.70
2011,07,01,15,37,17.70
2011,07,01,15,38,17.70
2011,07,01,15,39,17.70
2011,07,01,15,40,17.80
2011,07,01,15,41,17.90
2011,07,01,15,42,17.90
2011,07,01,15,43,17.90
2011,07,01,15,44,17.90
2011,07,01,15,45,17.90
2011,07,01,15,46,17.90
2011,07,01,15,47,18.00
2011,07,01,15,48,18.10
2011,07,01,15,49,18.20
2011,07,01,15,50,18.30
2011,07,01,15,51,18.40
2011,07,01,15,52,18.50
2011,07,01,15,53,18.60
2011,07,01,15,54,18.60
2011,07,01,15,55,18.60
2011,07,01,15,56,18.60
2011,07,01,15,57,18.50
2011,07,01,15,58,18.30
2011,07,01,15,59,18.10
2011,07,01,16,00,17.90
2011,07,01,16,01,17.80
2011,07,01,16,02,17.70
2011,07,01,16,03,17.70
2011,07,01,16,04,17.60
2011,07,01,16,05,17.70
2011,07,01,16,06,17.60
2011,07,01,16,07,17.60
2011,07,01,16,08,17.60
2011,07,01,16,09,17.60
2011,07,01,16,10,17.50
2011,07,01,16,11,17.40
2011,07,01,16,12,17.30
2011,07,01,16,13,17.20
2011,07,01,16,14,17.20
2011,07,01,16,15,17.30
2011,07,01,16,16,17.30
2011,07,01,16,17,17.40
2011,07,01,16,18,17.50
2011,07,01,16,19,17.60
2011,07,01,16,20,17.70
2011,07,01,16,21,17.80
2011,07,01,16,22,17.90
2011,07,01,16,23,17.90
2011,07,01,16,24,17.90
2011,07,01,16,25,18.00
2011,07,01,16,26,18.00
2011,07,01,16,27,18.10
2011,07,01,16,28,18.10
2011,07,01,16,29,18.10
2011,07,01,16,30,18.10
2011,07,01,16,31,18.10
2011,07,01,16,32,18.10
2011,07,01,16,33,18.10
2011,07,01,16,34,18.10
2011,07,01,16,35,18.10
2011,07,01,16,36,18.30
2011,07,01,16,37,18.40
2011,07,01,16,38,18.50
2011,07,01,16,39,18.60
2011,07,01,16,40,18.70
2011,07,01,16,41,18.70
2011,07,01,16,42,18.80
2011,07,01,16,43,18.80
2011,07,01,16,44,18.80
2011,07,01,16,45,18.80
2011,07,01,16,46,18.90
2011,07,01,16,47,19.00
2011,07,01,16,48,19.10
2011,07,01,16,49,19.10
2011,07,01,16,50,19.20
2011,07,01,16,51,19.30
2011,07,01,16,52,19.30
2011,07,01,16,53,19.30
2011,07,01,16,54,19.30
2011,07,01,16,55,19.40
2011,07,01,16,56,19.40
2011,07,01,16,57,19.40
2011,07,01,16,58,19.50
2011,07,01,16,59,19.40
2011,07,01,17,00,19.30
2011,07,01,17,01,19.30
2011,07,01,17,02,19.30
2011,07,01,17,03,19.30
2011,07,01,17,04,19.30
2011,07,01,17,05,19.30
2011,07,01,17,06,19.30
2011,07,01,17,07,19.30
2011,07,01,17,08,19.30
2011,07,01,17,09,19.40
2011,07,01,17,10,19.40
2011,07,01,17,11,19.40
2011,07,01,17,12,19.40
2011,07,01,17,13,19.40
2011,07,01,17,14,19.50
2011,07,01,17,15,19.40
2011,07,01,17,16,19.50
2011,07,01,17,17,19.50
2011,07,01,17,18,19.60
2011,07,01,17,19,19.60